Location: Hohe Wand Wildgehege
(47.8330°N, 16.0440°E)
Time: 12:02:11
(UTC+02:00)

Envisat - Visible Passes

Search period start: 17 October 2019 00:00
Search period end: 27 October 2019 00:00
Orbit: 764 x 766 km, 98.1° (Epoch: 17 October)

Date Brightness Start Highest point End Pass type
(mag) Time Alt. Az. Time Alt. Az. Time Alt. Az.
17 Oct 6.1 06:46:47 10° NE 06:50:25 19° E 06:54:00 10° SE visible
17 Oct 4.7 19:43:22 10° SSW 19:47:57 34° W 19:52:35 10° NNW visible
18 Oct 3.3 19:05:58 10° S 19:11:01 71° WSW 19:16:08 10° NNW visible
19 Oct 3.1 18:29:20 10° SSE 18:34:17 58° ENE 18:39:18 10° N visible
19 Oct 5.6 20:09:54 10° SW 20:13:42 21° W 20:17:30 10° NW visible
20 Oct 6.2 06:36:01 10° NE 06:39:00 16° E 06:41:59 10° SE visible
20 Oct 4.3 19:31:49 10° SSW 19:36:37 42° W 19:41:27 10° NNW visible
21 Oct 3.1 18:54:40 10° SSE 18:59:45 87° WSW 19:04:53 10° NNW visible
21 Oct 6.1 20:37:29 10° WSW 20:39:33 12° W 20:41:36 10° WNW visible
22 Oct 3.3 18:18:14 10° SE 18:23:04 47° ENE 18:27:57 10° N visible
22 Oct 5.2 19:58:08 10° SSW 20:02:19 26° W 20:06:32 10° NW visible
23 Oct 6.4 06:25:31 10° ENE 06:27:34 12° E 06:29:38 10° ESE visible
23 Oct 3.9 19:20:22 10° S 19:25:18 52° W 19:30:18 10° NNW visible
24 Oct 2.9 18:43:26 10° SSE 18:48:29 77° ENE 18:53:35 10° N visible
24 Oct 5.9 20:25:09 10° SW 20:28:07 15° W 20:31:06 10° NW visible
25 Oct 6.0 06:49:37 10° NE 06:53:26 21° E 06:57:13 10° SE visible
25 Oct 4.9 19:46:28 10° SSW 19:50:58 31° W 19:55:29 10° NNW visible
26 Oct 3.5 19:08:58 10° S 19:14:00 65° WSW 19:19:05 10° NNW visible
